Location: Baili�vre
(50.0696°N, 4.2409°E)
Time: 06:34:20
(UTC+00:00)

Cosmos 2333 - Pass Details

Date: 08 August 2020
Orbit: 830 x 866 km, 70.9° (Epoch: 23 September)

Event Time Altitude Azimuth Distance (km) Brightness Sun altitude
Rises 23:34:10 0° 328° (NNW) 3,461 8.4 -24.1°
Reaches altitude 10° 23:36:40 10° 326° (NW) 2,520 7.4 -24.1°
Maximum altitude 23:42:23 63° 247° (WSW) 966 4.3 -24.1°
Enters shadow 23:43:12 56° 208° (SSW) 1,021 4.3 -24.1°
